Location: Arcueil
(48.7999°N, 2.3326°E)
Time: 00:52:43
(UTC+00:00)

Cosmos 1892 - Pass Details

Date: 03 February 2023
Orbit: 487 x 506 km, 82.5° (Epoch: 21 March)

Event Time Altitude Azimuth Distance (km) Brightness Sun altitude
Rises 18:04:57 0° 188° (S) 2,572 6.5 -12.4°
Reaches altitude 10° 18:07:02 10° 188° (S) 1,699 5.6 -12.7°
Maximum altitude 18:10:45 89° 100° (E) 509 2.6 -13.3°
Drops below altitude 10° 18:14:33 10° 10° (N) 1,730 5.2 -13.9°
Sets 18:16:42 0° 10° (N) 2,624 6.1 -14.3°
